| time (UTC) | temp F | wind direction | speed MPH | gust MPH | rain 1hr in | rain 24hr in | rain mn in | humidity % | barometer mb |
| 20260504050105 | 52 | 39 | 3.0 | 6.0 | 0.00 | 0.01 | 0.00 | 90 | 1013.1 |
| 20260504044538 | 52 | 354 | 2.0 | 4.0 | 0.00 | 0.05 | 0.00 | 90 | 1013.1 |
| 20260504043036 | 52 | 40 | 2.0 | 4.0 | 0.00 | 0.05 | 0.00 | 90 | 1013.1 |
| 20260504041537 | 52 | 347 | 3.0 | 5.0 | 0.00 | 0.05 | 0.00 | 90 | 1013.1 |
| 20260504040039 | 52 | 342 | 2.0 | 3.0 | 0.00 | 0.05 | 0.00 | 90 | 1013.2 |
| 20260504034541 | 52 | 326 | 2.0 | 4.0 | 0.00 | 0.07 | 0.00 | 90 | 1013.2 |
| 20260504033031 | 51 | 328 | 3.0 | 5.0 | 0.00 | 0.07 | 0.00 | 90 | 1013.1 |
| 20260504031526 | 51 | 315 | 3.0 | 4.0 | 0.00 | 0.07 | 0.00 | 90 | 1012.9 |
| 20260504030036 | 52 | 326 | 2.0 | 4.0 | 0.00 | 0.07 | 0.00 | 90 | 1012.9 |
| 20260504024523 | 52 | 284 | 3.0 | 4.0 | 0.00 | 0.07 | 0.00 | 90 | 1013.0 |
| 20260504023020 | 52 | 314 | 2.0 | 3.0 | 0.00 | 0.07 | 0.00 | 90 | 1012.9 |
| 20260504021521 | 52 | 257 | 1.0 | 3.0 | 0.00 | 0.07 | 0.00 | 90 | 1013.0 |
| 20260504020017 | 52 | 269 | 1.0 | 3.0 | 0.00 | 0.07 | 0.00 | 90 | 1013.1 |
| 20260504014518 | 52 | 258 | 1.0 | 2.0 | 0.00 | 0.07 | 0.00 | 90 | 1013.1 |
| 20260504013011 | 51 | 300 | 1.0 | 3.0 | 0.00 | 0.07 | 0.00 | 90 | 1013.0 |
| 20260504011510 | 51 | 206 | 0.0 | 2.0 | 0.00 | 0.07 | 0.00 | 89 | 1013.0 |
| 20260504010010 | 51 | 295 | 0.0 | 2.0 | 0.00 | 0.07 | 0.00 | 90 | 1013.0 |
| 20260504004510 | 51 | 319 | 1.0 | 2.0 | 0.00 | 0.07 | 0.00 | 90 | 1013.0 |
| 20260504003007 | 51 | 257 | 1.0 | 3.0 | 0.00 | 0.07 | 0.00 | 90 | 1012.9 |
| 20260504001506 | 51 | 46 | 0.0 | 3.0 | 0.00 | 0.07 | 0.00 | 89 | 1012.9 |
| 20260504000111 | 51 | 39 | 1.0 | 2.0 | 0.00 | 0.07 | 0.00 | 89 | 1012.9 |
| 20260503234508 | 50 | 40 | 1.0 | 2.0 | 0.00 | 0.08 | 0.00 | 89 | 1012.9 |
| 20260503233101 | 51 | 314 | 0.0 | 3.0 | 0.00 | 0.08 | 0.00 | 89 | 1012.8 |
| 20260503231600 | 51 | 42 | 2.0 | 4.0 | 0.00 | 0.08 | 0.00 | 89 | 1012.9 |
| 20260503231501 | 51 | 39 | 2.0 | 4.0 | 0.00 | 0.08 | 0.00 | 89 | 1012.7 |
| 20260503230101 | 51 | 33 | 2.0 | 3.0 | 0.00 | 0.08 | 0.00 | 89 | 1012.7 |
| 20260503224558 | 51 | 295 | 1.0 | 3.0 | 0.00 | 0.08 | 0.08 | 89 | 1012.6 |
| 20260503223057 | 51 | 346 | 2.0 | 3.0 | 0.00 | 0.08 | 0.08 | 89 | 1012.5 |
| 20260503221555 | 51 | 316 | 2.0 | 4.0 | 0.00 | 0.08 | 0.08 | 89 | 1012.5 |
| 20260503220054 | 51 | 1 | 2.0 | 4.0 | 0.00 | 0.08 | 0.08 | 89 | 1012.5 |
| 20260503214557 | 52 | 309 | 2.0 | 6.0 | 0.00 | 0.08 | 0.08 | 89 | 1012.5 |
| 20260503213117 | 52 | 307 | 2.0 | 4.0 | 0.00 | 0.08 | 0.08 | 89 | 1012.5 |
| 20260503211614 | 52 | 300 | 2.0 | 5.0 | 0.00 | 0.08 | 0.08 | 89 | 1012.3 |
| 20260503210048 | 52 | 283 | 2.0 | 4.0 | 0.00 | 0.08 | 0.08 | 89 | 1012.3 |
| 20260503204601 | 52 | 321 | 2.0 | 3.0 | 0.00 | 0.08 | 0.08 | 89 | 1012.2 |
| 20260503203045 | 52 | 317 | 2.0 | 4.0 | 0.00 | 0.08 | 0.08 | 89 | 1012.1 |
| 20260503201545 | 53 | 326 | 3.0 | 5.0 | 0.00 | 0.08 | 0.08 | 89 | 1011.9 |
| 20260503200044 | 53 | 334 | 2.0 | 5.0 | 0.00 | 0.08 | 0.08 | 89 | 1011.7 |
| 20260503194544 | 53 | 314 | 2.0 | 4.0 | 0.00 | 0.09 | 0.08 | 89 | 1011.5 |
| 20260503193042 | 53 | 309 | 2.0 | 4.0 | 0.00 | 0.09 | 0.08 | 89 | 1011.3 |
| 20260503191556 | 53 | 321 | 2.0 | 4.0 | 0.00 | 0.09 | 0.08 | 88 | 1011.3 |
| 20260503190041 | 53 | 13 | 2.0 | 5.0 | 0.00 | 0.09 | 0.08 | 88 | 1011.2 |
| 20260503184556 | 53 | 352 | 3.0 | 5.0 | 0.00 | 0.09 | 0.08 | 88 | 1011.0 |
| 20260503183045 | 53 | 354 | 4.0 | 6.0 | 0.00 | 0.09 | 0.08 | 88 | 1010.9 |
| 20260503181539 | 53 | 8 | 4.0 | 8.0 | 0.00 | 0.09 | 0.08 | 88 | 1010.8 |
| 20260503180039 | 53 | 14 | 3.0 | 8.0 | 0.00 | 0.09 | 0.08 | 88 | 1010.8 |
| 20260503174550 | 53 | 353 | 3.0 | 9.0 | 0.00 | 0.09 | 0.08 | 88 | 1010.9 |
| 20260503173037 | 53 | 6 | 5.0 | 9.0 | 0.00 | 0.09 | 0.08 | 88 | 1010.8 |
| 20260503171536 | 54 | 348 | 4.0 | 9.0 | 0.00 | 0.09 | 0.08 | 88 | 1010.7 |
| 20260503090107 | 55 | 96 | 3.0 | 7.0 | 0.00 | 0.09 | 0.08 | 90 | 1011.0 |
| 20260503081559 | 54 | 140 | 2.0 | 6.0 | 0.00 | 0.09 | 0.08 | 90 | 1010.9 |